Regional Weather Roundup
Issued by NWS Raleigh/Durham, NC

Home | Current Version | Previous Version | Text Only | Print | Product List | Glossary On
Versions: 1 2 3 4 5 6 7 8 9 10 11 12 13 14 15 16 17 18 19 20 21 22 23 24 25 26 27 28 29 30 31 32 33 34 35 36 37 38 39 40 41 42 43 44 45 46 47 48 49 50
000
ASUS42 KRAH 121010
RWRRAH
NORTH CAROLINA WEATHER ROUNDUP
NATIONAL WEATHER SERVICE RALEIGH NC
500 AM EST TUE DEC 12 2017

NOTE: "FAIR" INDICATES FEW OR NO CLOUDS BELOW 12,000 FEET WITH NO
SIGNIFICANT WEATHER AND/OR OBSTRUCTIONS TO VISIBILITY.

NCZ001-053-055-056-065-067-121100-
WESTERN NORTH CAROLINA

CITY           SKY/WX    TMP DP  RH WIND       PRES   REMARKS
ASHEVILLE      PTCLDY    32  27  81 N13       29.74F WCI  22
JEFFERSON      PTCLDY    39  28  63 W17G33    29.68F WCI  30
MORGANTON      PTCLDY    29  29 100 CALM      29.76F
HICKORY        PTCLDY    33  31  92 CALM      29.72F
RUTHERFORDTON  PTCLDY    32  32  99 CALM      29.76F
MOUNT AIRY     PTCLDY    31  28  86 CALM      29.73F
BOONE          CLEAR     39  27  61 NW22G32   29.69F WCI  29
$$

NCZ021-022-025-041-071-084-088-121100-
CENTRAL NORTH CAROLINA

CITY           SKY/WX    TMP DP  RH WIND       PRES   REMARKS
CHARLOTTE      PTCLDY    42  34  73 SW7       29.76F
GREENSBORO     MOCLDY    38  33  82 SW8       29.72F WCI  32
WINSTON-SALEM  PTCLDY    38  31  76 CALM      29.74F
RALEIGH-DURHAM CLOUDY    40  33  76 SW10      29.75F WCI  33
FORT BRAGG     PTCLDY    39  33  79 SW3       29.77F
FAYETTEVILLE   PTCLDY    40  35  83 S8        29.79F WCI  34
BURLINGTON     CLOUDY    38  33  82 SW5       29.73F WCI  34
LAURINBURG     PTCLDY    40  36  86 S8        29.80F WCI  34
$$

NCZ011-015-027-028-043-044-047-080-103-121100-
NORTHEASTERN NORTH CAROLINA

CITY           SKY/WX    TMP DP  RH WIND       PRES   REMARKS
ROCKY MT-WILSO CLOUDY    40  34  79 S8        29.77F WCI  34
GREENVILLE     CLOUDY    41  34  75 SW9       29.82F
WASHINGTON     CLEAR     39  33  79 S5        29.81F
ELIZABETH CITY CLOUDY    41  37  86 S6        29.80F
MANTEO         CLEAR     43  35  74 SW10      29.83F
CAPE HATTERAS  CLEAR     51  42  71 SW12G20   29.85F
$$

NCZ078-087-090-091-093-098-101-121100-
SOUTHEASTERN NORTH CAROLINA

CITY           SKY/WX    TMP DP  RH WIND       PRES   REMARKS
LUMBERTON      CLEAR     41  35  79 S6        29.81F
GOLDSBORO      PTCLDY    41  34  75 S5        29.78F
KINSTON        PTCLDY    40  35  81 S8        29.81F WCI  35
KENANSVILLE    CLEAR     37  34  87 CALM      29.82F
NEW BERN       CLEAR     42  38  85 SW9       29.84F
CHERRY POINT   CLEAR     36  35  96 S6        29.85F WCI  31
BEAUFORT       CLEAR     54  44  69 SW15      29.85F
JACKSONVILLE   CLEAR     47  39  74 SW7       29.84F
WILMINGTON     CLEAR     49  40  71 SW9       29.85F
$$




USA.gov is the U.S. government's official web portal to all federal, state and local government web resources and services.